EW5448 Weather Reports


Display with metric or nautical units.
time (UTC)temp
F
wind
direction
speed
MPH
gust
MPH
rain 1hr
in
rain 24hr
in
rain mn
in
humidity
%
barometer
mb
20260905140038 76 130 1.0 4.0 0.00 0.00 0.00 24 996.2
20260905134540 75 101 0.0 5.0 0.00 0.00 0.00 25 996.0
20260905133035 74 93 0.0 2.0 0.00 0.00 0.00 24 995.8
20260905131533 75 46 0.0 1.0 0.00 0.00 0.00 23 995.6
20260905130033 75 46 0.0 1.0 0.00 0.00 0.00 22 995.3
20260905124529 74 18 0.0 1.0 0.00 0.00 0.00 23 995.1
20260905123028 74 19 0.0 1.0 0.00 0.00 0.00 24 995.0
20260905121527 74 84 0.0 1.0 0.00 0.00 0.00 24 994.9
20260905120026 75 84 0.0 0.0 0.00 0.00 0.00 23 994.9
20260905114520 76 84 0.0 1.0 0.00 0.00 0.00 23 994.9
20260905113019 77 88 0.0 1.0 0.00 0.00 0.00 21 994.8
20260905111517 78 95 0.0 1.0 0.00 0.00 0.00 21 994.8
20260905110015 78 360 0.0 1.0 0.00 0.00 0.00 21 994.8
20260905104514 78 351 0.0 1.0 0.00 0.00 0.00 20 994.7
20260905103013 78 307 0.0 2.0 0.00 0.00 0.00 20 994.7
20260905101512 78 338 0.0 1.0 0.00 0.00 0.00 20 994.7
20260905100011 78 95 0.0 1.0 0.00 0.00 0.00 21 994.7
20260905094507 80 96 0.0 2.0 0.00 0.00 0.00 20 994.6
20260905093006 80 274 0.0 1.0 0.00 0.00 0.00 19 994.5
20260905091505 80 340 0.0 1.0 0.00 0.00 0.00 19 994.4
20260905090004 80 330 0.0 1.0 0.00 0.00 0.00 18 994.4
20260905084502 80 330 0.0 1.0 0.00 0.00 0.00 19 994.4
20260905083001 81 298 0.0 1.0 0.00 0.00 0.00 19 994.4
20260905081602 80 297 0.0 1.0 0.00 0.00 0.00 19 994.4
20260905080108 80 296 0.0 0.0 0.00 0.00 0.00 18 994.4
20260905074619 81 296 0.0 1.0 0.00 0.00 0.00 19 994.5
20260905073055 83 254 0.0 1.0 0.00 0.00 0.00 16 994.4
20260905071552 83 215 0.0 4.0 0.00 0.00 0.00 16 994.0
20260905070106 83 142 1.0 4.0 0.00 0.00 0.00 17 993.9
20260905064549 85 118 0.0 2.0 0.00 0.00 0.00 16 993.9
20260905063048 86 142 0.0 2.0 0.00 0.00 0.00 16 994.0
20260905061555 87 114 0.0 4.0 0.00 0.00 0.00 15 993.9
20260905060046 88 162 0.0 4.0 0.00 0.00 0.00 14 993.8
20260905054556 89 123 2.0 6.0 0.00 0.00 0.00 13 993.7
20260905053048 88 144 5.0 8.0 0.00 0.00 0.00 14 993.6
20260905051547 87 132 1.0 7.0 0.00 0.00 0.00 15 993.5
20260905050047 88 117 3.0 7.0 0.00 0.00 0.00 14 993.4
20260905044545 88 153 4.0 8.0 0.00 0.00 0.00 14 993.3
20260905043044 89 128 2.0 6.0 0.00 0.00 0.00 14 993.2
20260905041545 89 163 3.0 7.0 0.00 0.00 0.00 13 993.1
20260905040045 89 152 3.0 7.0 0.00 0.00 0.00 13 992.8
20260905034544 90 126 5.0 8.0 0.00 0.00 0.00 12 992.7
20260905033050 90 211 5.0 9.0 0.00 0.00 0.00 11 992.4
20260905031547 89 123 3.0 6.0 0.00 0.00 0.00 13 992.2
20260905030047 90 159 0.0 5.0 0.00 0.00 0.00 13 991.9
20260905024541 92 113 1.0 6.0 0.00 0.00 0.00 12 991.7
20260905023041 93 132 3.0 6.0 0.00 0.00 0.00 11 991.6
20260905021539 95 143 3.0 10.0 0.00 0.00 0.00 11 991.6
20260905020040 96 161 5.0 9.0 0.00 0.00 0.00 10 991.5
20260905014539 99 144 4.0 11.0 0.00 0.00 0.00 9 991.4
20260905013039 100 194 7.0 14.0 0.00 0.00 0.00 8 991.4
20260905011537 101 148 7.0 12.0 0.00 0.00 0.00 8 991.4
20260905010037 101 163 8.0 18.0 0.00 0.00 0.00 9 991.5
20260905004537 101 205 8.0 19.0 0.00 0.00 0.00 9 991.4
20260905003036 102 165 9.0 15.0 0.00 0.00 0.00 8 991.5
20260905001535 102 161 8.0 16.0 0.00 0.00 0.00 9 991.5
20260905000037 103 144 7.0 16.0 0.00 0.00 0.00 9 991.5
20260904234541 102 146 8.0 16.0 0.00 0.00 0.00 10 991.6
20260904233032 103 163 8.0 15.0 0.00 0.00 0.00 10 991.7
20260904231530 103 241 8.0 18.0 0.00 0.00 0.00 11 991.9
20260904230030 103 161 11.0 21.0 0.00 0.00 0.00 11 992.0
20260904224534 103 184 6.0 16.0 0.00 0.00 0.00 12 992.1
20260904223029 102 207 9.0 19.0 0.00 0.00 0.00 11 992.3
20260904221533 102 229 7.0 24.0 0.00 0.00 0.00 11 992.4
20260904220026 102 200 10.0 20.0 0.00 0.00 0.00 9 992.6
20260904214526 102 218 13.0 20.0 0.00 0.00 0.00 9 992.7
20260904213030 101 153 12.0 21.0 0.00 0.00 0.00 9 993.0
20260904211524 102 211 9.0 22.0 0.00 0.00 0.00 10 993.2
20260904210026 102 240 14.0 23.0 0.00 0.00 0.00 9 993.2
20260904204521 99 151 10.0 19.0 0.00 0.00 0.00 17 993.1
20260904203031 99 235 6.0 18.0 0.00 0.00 0.00 19 993.3
20260904201520 99 196 10.0 19.0 0.00 0.00 0.00 18 993.8
20260904200019 99 164 9.0 16.0 0.00 0.00 0.00 21 993.9
20260904194517 98 216 9.0 23.0 0.00 0.00 0.00 23 994.1
20260904193018 97 137 10.0 19.0 0.00 0.00 0.00 23 994.2
20260904191518 97 133 7.0 18.0 0.00 0.00 0.00 26 994.3
20260904190015 96 146 10.0 18.0 0.00 0.00 0.00 27 994.6
20260904184508 97 193 10.0 16.0 0.00 0.00 0.00 21 994.9
20260904183006 95 142 8.0 19.0 0.00 0.00 0.00 23 995.0
20260904181502 95 126 9.0 15.0 0.00 0.00 0.00 29 995.0
20260904180059 95 232 5.0 13.0 0.00 0.00 0.00 26 995.1
20260904174555 95 106 7.0 16.0 0.00 0.00 0.00 23 995.2
20260904173056 94 143 7.0 21.0 0.00 0.00 0.00 24 995.2
20260904171559 93 158 11.0 18.0 0.00 0.00 0.00 27 995.1
20260904170052 93 147 9.0 19.0 0.00 0.00 0.00 28 995.0
20260904164544 91 221 3.0 8.0 0.00 0.00 0.00 27 995.1
20260904163042 89 248 5.0 10.0 0.00 0.00 0.00 26 995.1
20260904161537 88 221 5.0 12.0 0.00 0.00 0.00 25 995.0
20260904160046 88 207 6.0 9.0 0.00 0.00 0.00 25 994.9
20260904154535 86 157 5.0 9.0 0.00 0.00 0.00 23 994.9
20260904153028 85 259 3.0 7.0 0.00 0.00 0.00 23 994.9
20260904151528 82 232 0.0 4.0 0.00 0.00 0.00 19 994.8
20260904150039 81 252 0.0 2.0 0.00 0.00 0.00 20 994.7
20260904144524 80 29 0.0 0.0 0.00 0.00 0.00 21 994.7
20260904143023 79 29 0.0 0.0 0.00 0.00 0.00 23 994.5
20260904141527 78 29 0.0 1.0 0.00 0.00 0.00 23 994.3